sat.trackr.live / text

‹ back to catalog

KUIPER-00442

NORAD 68943 · 2026-098AA

PAYLOAD ACTIVE UNKNOWN

§ Identity

Operator
Country
US
Launch date
2026-04-30
Launch site
FRGUI
Launch vehicle
Mass (kg)
RCS (m²)

External: N2YO · Heavens-Above · Gunter

§ Orbital elements

Epoch: 2026-05-25T02:53:57.475968Z

Period
93.86 min
Inclination
51.8767°
Eccentricity
0.0010371
Mean motion
15.34232092 rev/d
Perigee alt
456.1 km
Apogee alt
470.3 km
Semi-major
6,841.3 km
B*
9.1681e-4
RAAN
178.9199°
Arg perigee
66.8777°
Mean anomaly
293.3301°
Rev number
380

§ Raw data

KUIPER-004421 68943U 26098AA  26145.12080412  .00030634  00000+0  91681-3 0  99942 68943  51.8767 178.9199 0010371  66.8777 293.3301 15.34232092  3806

JSON: /api/v1/satellites/68943 · /tle

For live sub-satellite position, see the globe view (requires WebGL).

§ Visibility from observer

Set your observer location to see the next 7 days of passes ≥ 10°. The values pass through the URL so the page stays shareable.

No JS? Fill the form by hand. The geolocation button needs JavaScript.